Year,Month,Day,Hour,Minute,Value (Times are PST for windgust in km/hr)
2017,08,14,00,00,6.40
2017,08,14,00,02,16.10
2017,08,14,00,03,11.30
2017,08,14,00,04,3.20
2017,08,14,00,05,1.60
2017,08,14,00,06,8.10
2017,08,14,00,07,9.60
2017,08,14,00,08,9.60
2017,08,14,00,12,8.10
2017,08,14,00,13,9.60
2017,08,14,00,19,4.80
2017,08,14,00,20,4.80
2017,08,14,00,22,4.80
2017,08,14,00,25,1.60
2017,08,14,00,26,1.60
2017,08,14,00,27,1.60
2017,08,14,00,28,9.60
2017,08,14,00,29,8.10
2017,08,14,00,36,4.80
2017,08,14,00,37,4.80
2017,08,14,00,38,1.60
2017,08,14,00,39,1.60
2017,08,14,00,41,3.20
2017,08,14,00,42,4.80
2017,08,14,00,43,3.20
2017,08,14,00,46,6.40
2017,08,14,00,47,6.40
2017,08,14,00,50,3.20
2017,08,14,00,51,4.80
2017,08,14,00,52,3.20
2017,08,14,01,03,6.40
2017,08,14,01,04,3.20
2017,08,14,01,05,4.80
2017,08,14,01,06,1.60
2017,08,14,01,07,4.80
2017,08,14,01,08,4.80
2017,08,14,01,10,3.20
2017,08,14,01,11,3.20
2017,08,14,01,13,3.20
2017,08,14,01,16,6.40
2017,08,14,01,17,6.40
2017,08,14,01,18,6.40
2017,08,14,01,19,4.80
2017,08,14,01,20,3.20
2017,08,14,01,23,1.60
2017,08,14,01,25,1.60
2017,08,14,01,26,4.80
2017,08,14,01,34,3.20
2017,08,14,01,35,1.60
2017,08,14,01,36,1.60
2017,08,14,01,44,1.60
2017,08,14,01,48,1.60
2017,08,14,01,55,1.60
2017,08,14,02,06,1.60
2017,08,14,02,24,1.60
2017,08,14,02,35,1.60
2017,08,14,02,37,1.60
2017,08,14,02,38,1.60
2017,08,14,02,39,1.60
2017,08,14,02,42,4.80
2017,08,14,02,43,3.20
2017,08,14,02,45,1.60
2017,08,14,02,46,4.80
2017,08,14,02,47,3.20
2017,08,14,02,48,3.20
2017,08,14,02,49,8.10
2017,08,14,02,50,3.20
2017,08,14,02,51,4.80
2017,08,14,02,56,1.60
2017,08,14,03,00,6.40
2017,08,14,03,01,4.80
2017,08,14,03,03,1.60
2017,08,14,03,05,4.80
2017,08,14,03,06,3.20
2017,08,14,03,07,1.60
2017,08,14,03,20,1.60
2017,08,14,03,24,3.20
2017,08,14,03,25,9.60
2017,08,14,03,26,4.80
2017,08,14,03,27,3.20
2017,08,14,03,28,3.20
2017,08,14,03,29,3.20
2017,08,14,03,30,3.20
2017,08,14,03,32,4.80
2017,08,14,03,33,4.80
2017,08,14,03,34,4.80
2017,08,14,03,37,1.60
2017,08,14,03,44,6.40
2017,08,14,03,45,4.80
2017,08,14,03,47,1.60
2017,08,14,03,48,1.60
2017,08,14,04,01,1.60
2017,08,14,04,09,1.60
2017,08,14,04,19,1.60
2017,08,14,05,27,1.60
2017,08,14,05,34,1.60
2017,08,14,07,47,1.60
2017,08,14,07,51,1.60
2017,08,14,08,07,1.60
2017,08,14,08,21,1.60
2017,08,14,08,25,1.60
2017,08,14,08,26,3.20
2017,08,14,08,27,3.20
2017,08,14,08,34,1.60
2017,08,14,08,43,4.80
2017,08,14,08,44,3.20
2017,08,14,08,49,1.60
2017,08,14,08,56,1.60
2017,08,14,08,59,6.40
2017,08,14,09,00,1.60
2017,08,14,09,01,1.60
2017,08,14,09,03,1.60
2017,08,14,09,04,1.60
2017,08,14,09,05,4.80
2017,08,14,09,06,4.80
2017,08,14,09,08,1.60
2017,08,14,09,13,4.80
2017,08,14,09,14,4.80
2017,08,14,09,16,1.60
2017,08,14,09,17,4.80
2017,08,14,09,18,9.60
2017,08,14,09,19,8.10
2017,08,14,09,20,8.10
2017,08,14,09,21,4.80
2017,08,14,09,22,1.60
2017,08,14,09,23,6.40
2017,08,14,09,24,6.40
2017,08,14,09,25,4.80
2017,08,14,09,26,6.40
2017,08,14,09,27,6.40
2017,08,14,09,28,4.80
2017,08,14,09,29,8.10
2017,08,14,09,30,9.60
2017,08,14,09,31,8.10
2017,08,14,09,32,11.30
2017,08,14,09,33,11.30
2017,08,14,09,34,11.30
2017,08,14,09,35,9.60
2017,08,14,09,36,8.10
2017,08,14,09,37,9.60
2017,08,14,09,38,8.10
2017,08,14,09,39,9.60
2017,08,14,09,40,9.60
2017,08,14,09,41,8.10
2017,08,14,09,42,9.60
2017,08,14,09,43,8.10
2017,08,14,09,44,9.60
2017,08,14,09,45,14.50
2017,08,14,09,46,12.90
2017,08,14,09,47,9.60
2017,08,14,09,48,9.60
2017,08,14,09,49,8.10
2017,08,14,09,50,8.10
2017,08,14,09,51,11.30
2017,08,14,09,52,12.90
2017,08,14,09,53,12.90
2017,08,14,09,54,11.30
2017,08,14,09,55,9.60
2017,08,14,09,56,12.90
2017,08,14,09,57,14.50
2017,08,14,09,58,14.50
2017,08,14,09,59,11.30
2017,08,14,10,00,14.50
2017,08,14,10,01,11.30
2017,08,14,10,02,14.50
2017,08,14,10,03,14.50
2017,08,14,10,04,9.60
2017,08,14,10,05,8.10
2017,08,14,10,06,11.30
2017,08,14,10,07,9.60
2017,08,14,10,08,9.60
2017,08,14,10,09,8.10
2017,08,14,10,10,9.60
2017,08,14,10,11,11.30
2017,08,14,10,12,12.90
2017,08,14,10,13,8.10
2017,08,14,10,14,9.60
2017,08,14,10,15,8.10
2017,08,14,10,16,6.40
2017,08,14,10,17,8.10
2017,08,14,10,18,9.60
2017,08,14,10,19,8.10
2017,08,14,10,20,11.30
2017,08,14,10,21,9.60
2017,08,14,10,22,9.60
2017,08,14,10,23,8.10
2017,08,14,10,24,8.10
2017,08,14,10,25,14.50
2017,08,14,10,26,11.30
2017,08,14,10,27,9.60
2017,08,14,10,28,11.30
2017,08,14,10,29,8.10
2017,08,14,10,30,9.60
2017,08,14,10,31,12.90
2017,08,14,10,32,11.30
2017,08,14,10,33,9.60
2017,08,14,10,34,9.60
2017,08,14,10,35,9.60
2017,08,14,10,36,11.30
2017,08,14,10,37,12.90
2017,08,14,10,38,11.30
2017,08,14,10,39,12.90
2017,08,14,10,40,11.30
2017,08,14,10,41,8.10
2017,08,14,10,42,9.60
2017,08,14,10,43,9.60
2017,08,14,10,44,9.60
2017,08,14,10,45,11.30
2017,08,14,10,46,9.60
2017,08,14,10,47,11.30
2017,08,14,10,48,12.90
2017,08,14,10,49,12.90
2017,08,14,10,50,11.30
2017,08,14,10,51,8.10
2017,08,14,10,52,9.60
2017,08,14,10,53,6.40
2017,08,14,10,54,11.30
2017,08,14,10,55,16.10
2017,08,14,10,56,16.10
2017,08,14,10,57,16.10
2017,08,14,10,58,16.10
2017,08,14,10,59,11.30
2017,08,14,11,00,11.30
2017,08,14,11,01,11.30
2017,08,14,11,02,9.60
2017,08,14,11,03,9.60
2017,08,14,11,04,14.50
2017,08,14,11,05,16.10
2017,08,14,11,06,9.60
2017,08,14,11,07,16.10
2017,08,14,11,08,16.10
2017,08,14,11,09,16.10
2017,08,14,11,10,17.70
2017,08,14,11,11,16.10
2017,08,14,11,12,17.70
2017,08,14,11,13,11.30
2017,08,14,11,14,16.10
2017,08,14,11,15,19.30
2017,08,14,11,16,19.30
2017,08,14,11,17,17.70
2017,08,14,11,18,17.70
2017,08,14,11,19,12.90
2017,08,14,11,20,17.70
2017,08,14,11,21,19.30
2017,08,14,11,22,16.10
2017,08,14,11,23,16.10
2017,08,14,11,24,11.30
2017,08,14,11,25,20.90
2017,08,14,11,26,14.50
2017,08,14,11,27,17.70
2017,08,14,11,28,14.50
2017,08,14,11,29,16.10
2017,08,14,11,30,12.90
2017,08,14,11,31,16.10
2017,08,14,11,32,17.70
2017,08,14,11,33,20.90
2017,08,14,11,34,19.30
2017,08,14,11,35,20.90
2017,08,14,11,36,17.70
2017,08,14,11,37,16.10
2017,08,14,11,38,14.50
2017,08,14,11,39,12.90
2017,08,14,11,40,17.70
2017,08,14,11,41,16.10
2017,08,14,11,42,9.60
2017,08,14,11,43,14.50
2017,08,14,11,44,19.30
2017,08,14,11,45,17.70
2017,08,14,11,46,11.30
2017,08,14,11,47,16.10
2017,08,14,11,48,19.30
2017,08,14,11,49,16.10
2017,08,14,11,50,11.30
2017,08,14,11,51,17.70
2017,08,14,11,52,17.70
2017,08,14,11,53,19.30
2017,08,14,11,54,16.10
2017,08,14,11,55,20.90
2017,08,14,11,56,16.10
2017,08,14,11,57,16.10
2017,08,14,11,58,9.60
2017,08,14,11,59,11.30
2017,08,14,12,00,16.10
2017,08,14,12,01,8.10
2017,08,14,12,02,16.10
2017,08,14,12,03,20.90
2017,08,14,12,04,14.50
2017,08,14,12,05,16.10
2017,08,14,12,06,12.90
2017,08,14,12,07,11.30
2017,08,14,12,08,9.60
2017,08,14,12,09,11.30
2017,08,14,12,10,14.50
2017,08,14,12,11,16.10
2017,08,14,12,12,17.70
2017,08,14,12,13,16.10
2017,08,14,12,14,11.30
2017,08,14,12,15,16.10
2017,08,14,12,16,19.30
2017,08,14,12,17,19.30
2017,08,14,12,18,11.30
2017,08,14,12,19,16.10
2017,08,14,12,20,17.70
2017,08,14,12,21,16.10
2017,08,14,12,22,14.50
2017,08,14,12,23,16.10
2017,08,14,12,24,14.50
2017,08,14,12,25,9.60
2017,08,14,12,26,11.30
2017,08,14,12,27,11.30
2017,08,14,12,28,11.30
2017,08,14,12,29,11.30
2017,08,14,12,30,16.10
2017,08,14,12,31,14.50
2017,08,14,12,32,17.70
2017,08,14,12,33,17.70
2017,08,14,12,34,17.70
2017,08,14,12,35,19.30
2017,08,14,12,36,14.50
2017,08,14,12,37,14.50
2017,08,14,12,38,14.50
2017,08,14,12,39,17.70
2017,08,14,12,40,19.30
2017,08,14,12,41,14.50
2017,08,14,12,42,16.10
2017,08,14,12,43,16.10
2017,08,14,12,44,16.10
2017,08,14,12,45,14.50
2017,08,14,12,46,20.90
2017,08,14,12,47,11.30
2017,08,14,12,48,19.30
2017,08,14,12,49,19.30
2017,08,14,12,50,16.10
2017,08,14,12,51,12.90
2017,08,14,12,52,9.60
2017,08,14,12,53,11.30
2017,08,14,12,54,16.10
2017,08,14,12,55,14.50
2017,08,14,12,56,16.10
2017,08,14,12,57,16.10
2017,08,14,12,58,12.90
2017,08,14,12,59,11.30
2017,08,14,13,00,11.30
2017,08,14,13,01,17.70
2017,08,14,13,02,17.70
2017,08,14,13,03,17.70
2017,08,14,13,04,12.90
2017,08,14,13,05,16.10
2017,08,14,13,06,16.10
2017,08,14,13,07,14.50
2017,08,14,13,08,17.70
2017,08,14,13,09,16.10
2017,08,14,13,10,16.10
2017,08,14,13,11,16.10
2017,08,14,13,12,17.70
2017,08,14,13,13,12.90
2017,08,14,13,14,20.90
2017,08,14,13,15,17.70
2017,08,14,13,16,16.10
2017,08,14,13,17,11.30
2017,08,14,13,18,14.50
2017,08,14,13,19,22.50
2017,08,14,13,20,16.10
2017,08,14,13,21,14.50
2017,08,14,13,22,22.50
2017,08,14,13,23,20.90
2017,08,14,13,24,14.50
2017,08,14,13,25,11.30
2017,08,14,13,26,17.70
2017,08,14,13,27,14.50
2017,08,14,13,28,17.70
2017,08,14,13,29,17.70
2017,08,14,13,30,16.10
2017,08,14,13,31,16.10
2017,08,14,13,32,11.30
2017,08,14,13,33,16.10
2017,08,14,13,34,16.10
2017,08,14,13,35,16.10
2017,08,14,13,36,11.30
2017,08,14,13,37,14.50
2017,08,14,13,38,16.10
2017,08,14,13,39,16.10
2017,08,14,13,40,17.70
2017,08,14,13,41,16.10
2017,08,14,13,42,11.30
2017,08,14,13,43,9.60
2017,08,14,13,44,17.70
2017,08,14,13,45,14.50
2017,08,14,13,46,11.30
2017,08,14,13,47,16.10
2017,08,14,13,48,16.10
2017,08,14,13,49,16.10
2017,08,14,13,50,14.50
2017,08,14,13,51,17.70
2017,08,14,13,52,14.50
2017,08,14,13,53,17.70
2017,08,14,13,54,16.10
2017,08,14,13,55,19.30
2017,08,14,13,56,19.30
2017,08,14,13,57,11.30
2017,08,14,13,58,16.10
2017,08,14,13,59,9.60
2017,08,14,14,00,14.50
2017,08,14,14,01,12.90
2017,08,14,14,02,16.10
2017,08,14,14,03,16.10
2017,08,14,14,04,16.10
2017,08,14,14,05,11.30
2017,08,14,14,06,11.30
2017,08,14,14,07,16.10
2017,08,14,14,08,14.50
2017,08,14,14,09,16.10
2017,08,14,14,10,16.10
2017,08,14,14,11,16.10
2017,08,14,14,12,12.90
2017,08,14,14,13,14.50
2017,08,14,14,14,17.70
2017,08,14,14,15,19.30
2017,08,14,14,16,20.90
2017,08,14,14,17,17.70
2017,08,14,14,18,22.50
2017,08,14,14,19,20.90
2017,08,14,14,20,19.30
2017,08,14,14,21,20.90
2017,08,14,14,22,19.30
2017,08,14,14,23,20.90
2017,08,14,14,24,16.10
2017,08,14,14,25,17.70
2017,08,14,14,26,16.10
2017,08,14,14,27,17.70
2017,08,14,14,28,19.30
2017,08,14,14,29,20.90
2017,08,14,14,30,20.90
2017,08,14,14,31,17.70
2017,08,14,14,32,17.70
2017,08,14,14,33,17.70
2017,08,14,14,34,17.70
2017,08,14,14,35,19.30
2017,08,14,14,36,14.50
2017,08,14,14,37,14.50
2017,08,14,14,38,20.90
2017,08,14,14,39,16.10
2017,08,14,14,40,14.50
2017,08,14,14,41,17.70
2017,08,14,14,42,14.50
2017,08,14,14,43,9.60
2017,08,14,14,44,19.30
2017,08,14,14,45,17.70
2017,08,14,14,46,19.30
2017,08,14,14,47,19.30
2017,08,14,14,48,19.30
2017,08,14,14,49,16.10
2017,08,14,14,50,16.10
2017,08,14,14,51,19.30
2017,08,14,14,52,19.30
2017,08,14,14,53,17.70
2017,08,14,14,54,19.30
2017,08,14,14,55,16.10
2017,08,14,14,56,14.50
2017,08,14,14,57,17.70
2017,08,14,14,58,14.50
2017,08,14,14,59,11.30
2017,08,14,15,00,16.10
2017,08,14,15,01,17.70
2017,08,14,15,02,16.10
2017,08,14,15,03,20.90
2017,08,14,15,04,22.50
2017,08,14,15,05,20.90
2017,08,14,15,06,19.30
2017,08,14,15,07,17.70
2017,08,14,15,08,19.30
2017,08,14,15,09,20.90
2017,08,14,15,10,20.90
2017,08,14,15,11,20.90
2017,08,14,15,12,20.90
2017,08,14,15,13,17.70
2017,08,14,15,14,19.30
2017,08,14,15,15,17.70
2017,08,14,15,16,19.30
2017,08,14,15,17,19.30
2017,08,14,15,18,20.90
2017,08,14,15,19,14.50
2017,08,14,15,20,17.70
2017,08,14,15,21,9.60
2017,08,14,15,22,17.70
2017,08,14,15,23,14.50
2017,08,14,15,24,16.10
2017,08,14,15,25,17.70
2017,08,14,15,26,16.10
2017,08,14,15,27,16.10
2017,08,14,15,28,12.90
2017,08,14,15,29,14.50
2017,08,14,15,30,16.10
2017,08,14,15,31,9.60
2017,08,14,15,32,12.90
2017,08,14,15,33,14.50
2017,08,14,15,34,16.10
2017,08,14,15,35,16.10
2017,08,14,15,36,9.60
2017,08,14,15,37,17.70
2017,08,14,15,38,20.90
2017,08,14,15,39,20.90
2017,08,14,15,40,17.70
2017,08,14,15,41,16.10
2017,08,14,15,42,14.50
2017,08,14,15,43,19.30
2017,08,14,15,44,19.30
2017,08,14,15,45,16.10
2017,08,14,15,46,20.90
2017,08,14,15,47,24.20
2017,08,14,15,48,20.90
2017,08,14,15,49,19.30
2017,08,14,15,50,19.30
2017,08,14,15,51,17.70
2017,08,14,15,52,12.90
2017,08,14,15,53,22.50
2017,08,14,15,54,16.10
2017,08,14,15,55,14.50
2017,08,14,15,56,20.90
2017,08,14,15,57,16.10
2017,08,14,15,58,19.30
2017,08,14,15,59,20.90
2017,08,14,16,00,20.90
2017,08,14,16,01,9.60
2017,08,14,16,02,12.90
2017,08,14,16,03,14.50
2017,08,14,16,04,17.70
2017,08,14,16,05,17.70
2017,08,14,16,06,20.90
2017,08,14,16,07,20.90
2017,08,14,16,08,17.70
2017,08,14,16,09,16.10
2017,08,14,16,10,17.70
2017,08,14,16,11,19.30
2017,08,14,16,12,24.20
2017,08,14,16,13,17.70
2017,08,14,16,14,20.90
2017,08,14,16,15,19.30
2017,08,14,16,16,19.30
2017,08,14,16,17,20.90
2017,08,14,16,18,17.70
2017,08,14,16,19,17.70
2017,08,14,16,20,11.30
2017,08,14,16,21,20.90
2017,08,14,16,22,20.90
2017,08,14,16,23,19.30
2017,08,14,16,24,20.90
2017,08,14,16,25,19.30
2017,08,14,16,26,20.90
2017,08,14,16,27,17.70
2017,08,14,16,28,16.10
2017,08,14,16,29,20.90
2017,08,14,16,30,22.50
2017,08,14,16,31,20.90
2017,08,14,16,32,16.10
2017,08,14,16,33,17.70
2017,08,14,16,34,22.50
2017,08,14,16,35,19.30
2017,08,14,16,36,17.70
2017,08,14,16,37,17.70
2017,08,14,16,38,17.70
2017,08,14,16,39,19.30
2017,08,14,16,40,17.70
2017,08,14,16,41,16.10
2017,08,14,16,42,16.10
2017,08,14,16,43,16.10
2017,08,14,16,44,17.70
2017,08,14,16,45,16.10
2017,08,14,16,46,11.30
2017,08,14,16,47,17.70
2017,08,14,16,48,11.30
2017,08,14,16,49,9.60
2017,08,14,16,50,11.30
2017,08,14,16,51,9.60
2017,08,14,16,52,9.60
2017,08,14,16,53,8.10
2017,08,14,16,54,14.50
2017,08,14,16,55,9.60
2017,08,14,16,56,8.10
2017,08,14,16,57,8.10
2017,08,14,16,58,6.40
2017,08,14,16,59,8.10
2017,08,14,17,00,6.40
2017,08,14,17,01,9.60
2017,08,14,17,02,11.30
2017,08,14,17,03,16.10
2017,08,14,17,04,9.60
2017,08,14,17,05,17.70
2017,08,14,17,06,14.50
2017,08,14,17,07,11.30
2017,08,14,17,08,11.30
2017,08,14,17,09,16.10
2017,08,14,17,10,16.10
2017,08,14,17,11,11.30
2017,08,14,17,12,12.90
2017,08,14,17,13,6.40
2017,08,14,17,15,6.40
2017,08,14,17,16,3.20
2017,08,14,17,17,12.90
2017,08,14,17,18,8.10
2017,08,14,17,21,8.10
2017,08,14,17,22,6.40
2017,08,14,17,23,6.40
2017,08,14,17,24,19.30
2017,08,14,17,25,17.70
2017,08,14,17,26,14.50
2017,08,14,17,27,8.10
2017,08,14,17,28,4.80
2017,08,14,17,29,8.10
2017,08,14,17,30,1.60
2017,08,14,17,31,8.10
2017,08,14,17,32,9.60
2017,08,14,17,33,14.50
2017,08,14,17,34,11.30
2017,08,14,17,35,16.10
2017,08,14,17,36,16.10
2017,08,14,17,37,9.60
2017,08,14,17,38,9.60
2017,08,14,17,39,17.70
2017,08,14,17,40,9.60
2017,08,14,17,41,8.10
2017,08,14,17,42,8.10
2017,08,14,17,43,4.80
2017,08,14,17,44,1.60
2017,08,14,17,46,3.20
2017,08,14,17,47,6.40
2017,08,14,17,49,1.60
2017,08,14,17,50,4.80
2017,08,14,17,51,4.80
2017,08,14,17,52,1.60
2017,08,14,17,54,1.60
2017,08,14,17,55,9.60
2017,08,14,17,56,9.60
2017,08,14,17,57,9.60
2017,08,14,17,58,4.80
2017,08,14,17,59,8.10
2017,08,14,18,00,8.10
2017,08,14,18,01,6.40
2017,08,14,18,02,8.10
2017,08,14,18,03,8.10
2017,08,14,18,06,6.40
2017,08,14,18,07,1.60
2017,08,14,18,08,6.40
2017,08,14,18,09,8.10
2017,08,14,18,10,9.60
2017,08,14,18,11,9.60
2017,08,14,18,12,11.30
2017,08,14,18,13,8.10
2017,08,14,18,14,17.70
2017,08,14,18,15,19.30
2017,08,14,18,16,17.70
2017,08,14,18,17,16.10
2017,08,14,18,18,17.70
2017,08,14,18,19,14.50
2017,08,14,18,20,14.50
2017,08,14,18,21,16.10
2017,08,14,18,22,11.30
2017,08,14,18,23,12.90
2017,08,14,18,24,17.70
2017,08,14,18,25,19.30
2017,08,14,18,26,16.10
2017,08,14,18,27,17.70
2017,08,14,18,28,17.70
2017,08,14,18,29,17.70
2017,08,14,18,30,11.30
2017,08,14,18,31,11.30
2017,08,14,18,32,19.30
2017,08,14,18,33,11.30
2017,08,14,18,34,9.60
2017,08,14,18,35,1.60
2017,08,14,18,37,6.40
2017,08,14,18,38,14.50
2017,08,14,18,39,14.50
2017,08,14,18,40,9.60
2017,08,14,18,41,9.60
2017,08,14,18,42,16.10
2017,08,14,18,43,11.30
2017,08,14,18,44,14.50
2017,08,14,18,45,9.60
2017,08,14,18,46,11.30
2017,08,14,18,47,16.10
2017,08,14,18,48,8.10
2017,08,14,18,49,11.30
2017,08,14,18,50,11.30
2017,08,14,18,51,14.50
2017,08,14,18,52,14.50
2017,08,14,18,53,16.10
2017,08,14,18,54,14.50
2017,08,14,18,55,8.10
2017,08,14,18,56,6.40
2017,08,14,18,57,8.10
2017,08,14,18,58,8.10
2017,08,14,18,59,8.10
2017,08,14,19,00,14.50
2017,08,14,19,01,9.60
2017,08,14,19,02,9.60
2017,08,14,19,03,11.30
2017,08,14,19,04,8.10
2017,08,14,19,05,9.60
2017,08,14,19,06,8.10
2017,08,14,19,07,11.30
2017,08,14,19,08,6.40
2017,08,14,19,09,8.10
2017,08,14,19,10,11.30
2017,08,14,19,11,11.30
2017,08,14,19,12,9.60
2017,08,14,19,13,9.60
2017,08,14,19,14,8.10
2017,08,14,19,15,4.80
2017,08,14,19,16,6.40
2017,08,14,19,17,6.40
2017,08,14,19,18,1.60
2017,08,14,19,21,1.60
2017,08,14,19,22,8.10
2017,08,14,19,23,4.80
2017,08,14,19,24,1.60
2017,08,14,19,25,4.80
2017,08,14,19,26,6.40
2017,08,14,19,27,8.10
2017,08,14,19,28,8.10
2017,08,14,19,29,4.80
2017,08,14,19,30,8.10
2017,08,14,19,31,9.60
2017,08,14,19,32,4.80
2017,08,14,19,33,1.60
2017,08,14,19,34,6.40
2017,08,14,19,35,4.80
2017,08,14,19,36,8.10
2017,08,14,19,37,9.60
2017,08,14,19,38,8.10
2017,08,14,19,39,9.60
2017,08,14,19,40,9.60
2017,08,14,19,41,9.60
2017,08,14,19,42,6.40
2017,08,14,19,43,6.40
2017,08,14,19,44,9.60
2017,08,14,19,45,8.10
2017,08,14,19,46,1.60
2017,08,14,19,47,6.40
2017,08,14,19,48,4.80
2017,08,14,19,49,6.40
2017,08,14,19,50,4.80
2017,08,14,19,51,6.40
2017,08,14,19,52,6.40
2017,08,14,19,53,3.20
2017,08,14,19,54,1.60
2017,08,14,19,55,3.20
2017,08,14,19,56,1.60
2017,08,14,19,57,1.60
2017,08,14,19,58,4.80
2017,08,14,19,59,4.80
2017,08,14,20,01,4.80
2017,08,14,20,02,3.20
2017,08,14,20,08,1.60
2017,08,14,20,09,1.60
2017,08,14,20,10,3.20
2017,08,14,20,11,4.80
2017,08,14,20,12,6.40
2017,08,14,20,14,1.60
2017,08,14,20,16,1.60
2017,08,14,20,20,1.60
2017,08,14,20,21,3.20
2017,08,14,20,22,1.60
2017,08,14,20,34,1.60
2017,08,14,20,40,3.20
2017,08,14,20,41,1.60
